Date,TemperatureHighF,TemperatureAvgF,TemperatureLowF,DewpointHighF,DewpointAvgF,DewpointLowF,HumidityHigh,HumidityAvg,HumidityLow,PressureMaxIn,PressureMinIn,WindSpeedMaxMPH,WindSpeedAvgMPH,GustSpeedMaxMPH,PrecipitationSumIn
2013-1-1,36.5,30.0,26.0,33.1,22.7,17.7,90,74,68,30.19,30.05,14,2,14,0.01
2013-1-2,28.2,26.0,22.2,21.8,19.0,15.0,86,74,66,30.33,30.16,15,2,16,0.00
2013-1-3,33.8,26.3,19.3,28.8,20.0,13.3,88,77,67,30.31,30.16,17,2,17,0.00
2013-1-4,35.4,32.1,29.8,28.4,23.1,19.3,82,70,55,30.29,30.12,20,5,20,0.00
2013-1-5,36.0,32.6,30.3,28.2,25.8,24.5,81,76,69,30.44,30.18,7,1,12,0.00
2013-1-6,38.9,36.8,35.6,33.7,31.6,27.9,90,82,73,30.29,30.02,17,2,17,0.15
2013-1-7,38.4,35.0,31.1,32.8,28.6,25.3,87,77,65,30.52,30.29,10,1,15,0.01
2013-1-8,41.7,35.0,27.3,29.8,26.8,23.1,84,72,59,30.40,30.32,6,1,13,0.00
2013-1-9,50.2,42.3,35.4,38.7,32.3,29.0,84,68,51,30.54,30.19,20,5,24,0.04
2013-1-10,42.9,36.5,28.0,36.3,30.2,25.5,93,78,65,30.70,30.35,4,0,5,0.00
2013-1-11,53.4,48.6,39.1,50.2,41.5,28.9,94,78,52,30.35,29.87,15,3,18,0.25
2013-1-12,61.8,55.0,49.1,55.3,51.5,47.2,95,88,77,30.08,29.94,12,1,12,0.01
2013-1-13,65.3,52.3,40.0,58.9,48.9,38.7,95,89,78,30.06,29.78,15,2,19,0.35
2013-1-14,40.0,33.7,30.7,38.7,27.8,23.2,95,79,71,30.54,30.06,17,2,19,0.00
2013-1-15,33.3,31.0,30.0,24.6,23.1,21.4,76,72,67,30.53,30.22,5,0,7,0.00
2013-1-16,38.5,34.6,30.9,29.5,26.0,22.5,82,71,58,30.23,29.95,15,1,20,0.00
2013-1-17,37.7,35.2,26.2,33.4,28.2,17.9,85,75,67,30.34,30.05,16,2,24,0.00
2013-1-18,37.2,28.6,22.5,22.0,16.8,10.0,72,61,52,30.58,30.16,18,3,21,0.00
2013-1-19,52.9,46.2,37.2,33.3,27.9,21.8,54,49,42,30.16,29.72,15,4,22,0.00
2013-1-20,51.3,32.0,25.3,35.3,20.5,13.3,73,62,51,30.25,29.68,28,8,34,0.00
2013-1-21,25.3,21.2,14.8,18.9,15.6,7.9,88,79,61,30.23,30.01,17,3,20,0.00
2013-1-22,16.2,13.0,10.7,9.5,5.6,1.5,83,72,65,30.36,30.14,25,8,25,0.00
2013-1-23,16.8,15.0,13.6,12.8,9.4,4.4,85,78,62,30.37,30.19,21,2,21,0.00
2013-1-24,22.0,19.2,14.7,16.9,10.9,6.5,87,70,54,30.68,30.19,11,1,14,0.04
2013-1-25,20.7,17.1,13.3,15.5,11.4,7.2,85,78,72,30.64,30.16,6,0,7,0.00
2013-1-26,28.4,24.1,19.3,23.8,19.5,15.5,89,82,73,30.55,30.18,6,0,9,0.04
2013-1-27,32.2,26.6,19.1,26.1,18.8,14.7,86,73,60,30.65,30.38,7,1,11,0.02
2013-1-28,51.1,40.6,30.0,49.1,38.4,26.3,96,92,86,30.37,29.98,15,2,20,0.46
2013-1-29,61.4,50.0,38.3,56.0,47.8,37.0,96,92,76,30.14,29.69,13,2,17,0.38
2013-1-30,64.8,58.7,39.3,56.1,52.7,35.8,94,81,69,29.69,29.18,27,4,28,0.56
2013-1-31,40.1,29.1,22.4,36.2,22.7,15.9,88,77,60,29.94,29.29,30,10,33,0.03
2013-2-1,23.8,20.5,17.2,18.3,14.2,9.4,88,76,60,30.39,29.93,21,5,24,0.00
2013-2-2,24.2,19.5,15.2,21.4,14.6,8.2,89,81,70,30.39,30.08,9,1,11,0.00
2013-2-3,23.7,22.0,20.7,20.9,18.3,14.4,89,86,75,30.09,29.95,15,2,17,0.00
2013-2-4,27.1,23.2,19.6,21.7,18.0,11.6,88,80,64,30.14,30.00,14,2,20,0.03
2013-2-5,30.2,25.7,20.0,24.3,21.4,16.2,89,84,73,30.04,29.94,6,0,7,0.07
2013-2-6,31.2,25.1,14.8,28.0,19.0,11.4,88,78,67,30.47,30.03,12,1,17,0.02
2013-2-7,43.9,31.2,15.7,31.0,23.0,12.2,88,72,47,30.43,29.98,14,1,15,0.07
2013-2-8,39.3,31.8,23.9,34.6,27.5,18.4,92,84,71,30.34,29.83,17,3,22,0.33
2013-2-9,28.9,24.5,19.4,22.4,19.5,16.3,89,81,75,30.54,30.35,10,1,12,0.01
2013-2-10,48.9,35.2,17.1,27.9,20.9,14.2,89,59,35,30.46,29.91,13,2,16,0.00
2013-2-11,53.7,41.7,36.0,45.0,34.2,27.5,91,75,49,29.96,29.69,26,7,32,0.00
2013-2-12,36.1,33.4,28.2,29.0,27.2,24.4,87,78,70,30.15,29.96,21,4,25,0.00
2013-2-13,36.5,31.5,25.9,28.9,26.3,22.8,88,81,71,30.02,29.85,7,0,9,0.00
2013-2-14,41.7,34.7,25.0,36.2,30.0,22.2,89,83,69,29.97,29.87,22,2,23,0.01
2013-2-15,40.1,33.6,28.0,31.1,25.7,19.5,83,73,63,30.21,29.93,19,3,23,0.00
2013-2-16,29.6,26.4,23.4,22.0,18.2,10.9,88,72,46,30.19,30.07,7,0,10,0.02
2013-2-17,23.8,20.9,16.0,19.6,15.1,9.2,88,78,64,30.37,30.06,12,1,14,0.00
2013-2-18,46.2,28.8,11.3,32.2,17.8,6.9,83,65,51,30.39,29.83,16,3,21,0.02
2013-2-19,47.9,34.6,22.2,39.0,29.2,17.9,91,81,57,30.01,29.65,25,6,27,0.19
2013-2-20,24.7,22.5,19.2,19.7,16.4,12.6,89,77,65,30.30,30.01,16,5,23,0.00
2013-2-21,24.6,22.9,20.9,19.3,16.7,13.9,81,77,72,30.50,30.29,17,2,17,0.00
2013-2-22,38.8,31.0,20.7,35.6,26.3,15.5,91,83,68,30.44,30.03,11,1,13,0.05
2013-2-23,39.1,35.0,32.1,36.4,29.5,25.0,96,80,68,30.07,29.98,13,2,16,0.02
2013-2-24,33.7,30.8,26.5,28.2,25.6,22.9,89,81,73,30.25,29.98,13,3,16,0.00
2013-2-25,41.1,33.2,21.2,29.5,25.7,18.7,91,75,57,30.34,30.25,4,1,5,0.00
2013-2-26,39.9,39.9,39.9,28.7,28.7,28.7,64,64,64,30.31,30.31,1,1,1,0.00
2013-2-27,39.9,39.9,39.9,28.7,28.7,28.7,64,64,64,30.31,30.31,1,1,1,0.00
2013-2-28,39.9,38.2,33.3,33.6,29.7,28.7,93,72,64,30.31,29.77,12,1,14,0.07
2013-3-1,33.3,30.2,26.9,30.1,25.3,22.2,88,82,78,30.12,29.94,7,1,13,0.00
2013-3-2,29.2,27.2,25.1,25.1,22.7,20.5,86,83,80,30.11,30.07,8,0,10,0.00
2013-3-3,30.2,27.2,25.6,24.9,22.5,19.1,89,82,71,30.13,30.05,16,2,16,0.01
2013-3-4,30.6,26.8,21.4,23.8,20.9,18.2,88,78,70,30.23,30.13,12,2,16,0.01
2013-3-5,34.7,28.4,21.7,29.0,24.3,18.7,90,85,72,30.24,29.86,13,1,21,0.00
2013-3-6,52.2,34.7,31.6,33.3,30.5,27.9,90,85,78,30.26,29.86,13,2,18,0.01
2013-3-7,36.4,34.5,32.7,34.2,32.0,28.5,93,90,84,30.45,30.25,7,1,9,0.02
2013-3-8,39.2,34.0,29.0,35.1,30.4,26.4,91,87,83,30.55,30.45,7,1,10,0.00
2013-3-9,47.3,34.9,24.4,36.7,29.6,22.2,93,82,54,30.54,30.21,10,1,10,0.01
2013-3-10,71.0,58.1,46.4,44.7,36.9,30.0,60,45,36,30.21,29.93,14,3,16,0.00
2013-3-11,60.9,56.1,44.8,49.5,41.5,36.3,93,60,41,29.94,29.64,17,3,20,0.64
2013-3-12,44.8,38.4,35.7,39.6,32.4,27.1,86,79,70,30.06,29.81,16,4,20,0.01
2013-3-13,35.7,32.1,27.7,29.1,26.4,19.9,91,79,59,30.21,29.97,19,4,22,0.03
2013-3-14,33.6,30.5,27.2,25.0,20.7,17.7,82,67,58,30.32,30.19,15,3,19,0.00
2013-3-15,37.7,34.6,27.1,34.2,29.7,22.1,93,82,69,30.19,29.95,16,2,20,0.02
2013-3-16,34.3,31.4,29.2,32.8,28.3,25.6,94,88,79,30.12,29.83,13,1,17,0.01
2013-3-17,34.2,30.9,27.5,27.3,23.5,20.0,89,74,61,30.37,30.12,12,1,12,0.09
2013-3-18,39.3,33.7,25.7,37.2,28.6,18.8,92,82,68,30.33,29.70,15,2,17,0.28
2013-3-19,39.9,33.0,27.6,38.0,27.0,21.3,93,78,67,30.03,29.77,20,6,28,0.02
2013-3-20,32.0,30.1,27.2,26.4,22.1,19.1,90,72,61,30.03,29.98,19,5,20,0.01
2013-3-21,31.2,27.1,23.2,27.6,21.6,14.2,90,79,63,29.99,29.93,16,4,20,0.00
2013-3-22,33.7,30.4,26.2,27.5,24.0,21.2,90,77,69,30.12,29.97,15,3,18,0.00
2013-3-23,38.7,31.8,23.8,31.0,26.2,20.0,87,80,61,30.19,30.09,7,1,11,0.01
2013-3-24,35.4,32.2,25.1,31.2,26.8,22.2,90,80,66,30.16,29.67,19,2,19,0.00
2013-3-25,37.0,34.5,32.1,33.9,31.3,28.4,93,88,78,29.90,29.60,19,3,22,0.11
2013-3-26,40.4,37.2,35.1,35.4,33.3,31.2,90,86,81,30.16,29.90,15,3,16,0.00
2013-3-27,41.6,37.2,34.9,33.9,32.0,29.9,93,82,63,30.24,30.14,17,3,19,0.10
2013-3-28,41.1,37.6,34.4,34.6,33.4,32.4,94,85,74,30.36,30.23,13,2,14,0.07
2013-3-29,45.9,40.2,32.2,35.1,31.6,25.6,86,72,52,30.35,30.29,15,2,17,0.00
2013-3-30,52.8,40.8,27.6,36.0,28.5,24.8,96,65,40,30.33,30.07,5,0,7,0.00
2013-3-31,55.5,48.7,40.1,45.7,36.2,27.2,89,63,46,30.07,29.71,11,1,13,0.05
2013-4-1,49.4,37.5,32.6,43.1,27.3,19.7,89,67,50,30.16,29.70,17,4,21,0.12
2013-4-2,38.7,33.9,30.3,28.1,21.1,17.3,72,59,45,30.29,30.16,17,4,22,0.00
2013-4-3,36.6,33.1,27.0,25.1,21.1,17.4,77,61,52,30.56,30.28,19,2,19,0.00
2013-4-4,53.9,36.3,26.3,28.8,20.4,15.4,78,55,23,30.50,30.05,8,1,11,0.00
2013-4-5,43.7,38.0,29.9,35.6,29.2,21.4,81,70,57,30.32,30.00,11,1,18,0.00
2013-4-6,54.7,39.6,24.8,34.8,24.9,20.9,86,60,28,30.40,30.00,9,1,13,0.00
2013-4-7,67.8,55.4,41.8,47.5,37.7,21.5,79,54,27,30.12,29.81,19,4,24,0.00
2013-4-8,73.7,28.9,41.7,52.1,-38.5,-99.9,79,19,37,30.14,29.83,17,2,20,0.63
2013-4-9,77.5,27.8,45.5,47.6,-23.2,-99.9,82,38,51,30.19,29.92,16,1,18,0.02
2013-4-10,52.3,44.8,40.1,49.7,42.1,38.0,96,90,75,30.08,29.87,13,1,20,1.34
2013-4-11,40.3,38.8,37.2,38.2,36.4,34.5,96,91,89,30.10,29.74,21,4,21,0.19
2013-4-12,47.9,42.1,38.7,45.9,37.3,32.7,93,84,67,29.83,29.55,19,4,21,0.32
2013-4-13,44.6,41.7,39.0,37.2,34.1,29.8,87,74,60,30.01,29.82,16,4,21,0.07
2013-4-14,45.2,41.3,33.4,35.3,32.3,29.0,85,70,58,30.15,30.01,12,1,12,0.00
2013-4-15,73.5,60.2,41.3,49.5,43.4,34.8,81,55,38,30.03,29.94,13,2,18,0.00
2013-4-16,66.5,56.0,48.9,59.2,49.5,46.1,91,80,61,30.21,29.92,16,2,18,0.26
2013-4-17,52.5,47.9,42.7,48.0,38.0,26.9,92,70,41,30.33,30.07,12,2,15,0.00
2013-4-18,85.5,68.1,44.5,62.1,53.1,36.9,90,62,34,30.12,29.62,18,3,23,0.00
2013-4-19,72.5,54.7,42.8,59.1,43.8,26.9,88,67,49,29.82,29.34,22,6,26,0.38
2013-4-20,42.8,38.6,34.7,32.0,27.1,22.6,86,63,50,30.44,29.81,22,4,23,0.09
2013-4-21,42.0,38.0,29.3,31.6,26.6,23.0,88,64,49,30.65,30.44,16,1,16,0.00
2013-4-22,62.9,49.4,37.3,39.3,30.8,24.5,73,50,33,30.50,30.23,12,2,14,0.00
2013-4-23,72.7,59.9,45.6,41.3,34.3,25.6,61,40,25,30.24,29.86,12,3,14,0.00
2013-4-24,65.7,49.1,37.4,53.2,40.9,33.6,89,76,34,30.15,29.68,19,3,19,0.56
2013-4-25,55.7,42.7,33.6,40.1,34.3,27.6,89,74,37,30.35,30.15,14,2,18,0.05
2013-4-26,53.0,43.8,31.7,40.4,32.9,26.2,91,68,42,30.49,30.34,8,0,11,0.01
2013-4-27,65.7,50.9,36.0,40.2,34.9,30.2,87,58,27,30.41,30.11,13,1,13,0.00
2013-4-28,64.1,57.7,49.1,53.5,46.2,37.0,88,67,43,30.12,29.87,13,2,16,0.16
2013-4-29,62.4,57.6,54.0,57.1,52.3,49.8,91,83,76,29.98,29.87,11,2,13,0.12
2013-4-30,75.4,64.7,55.5,57.2,53.7,50.2,90,70,42,30.12,29.97,14,2,14,0.00
2013-5-1,79.8,65.9,57.7,56.7,51.1,48.1,78,60,37,30.26,30.12,12,2,13,0.00
2013-5-2,76.8,66.3,58.5,48.9,38.7,30.3,57,37,24,30.31,30.16,12,2,14,0.00
2013-5-3,78.2,68.9,59.3,46.5,38.1,30.7,45,33,23,30.19,30.09,17,3,17,0.00
2013-5-4,73.1,62.3,52.9,45.6,39.7,31.8,70,44,25,30.17,30.08,13,2,13,0.00
2013-5-5,72.0,60.7,47.2,46.7,42.5,27.8,84,54,26,30.14,29.99,13,2,15,0.00
2013-5-6,69.3,60.1,52.2,49.5,37.1,22.6,63,43,21,30.08,29.99,11,2,14,0.00
2013-5-7,70.2,62.6,52.1,54.2,50.7,47.9,88,66,48,30.05,29.95,12,1,13,0.00
2013-5-8,70.3,62.2,53.7,56.7,53.0,49.0,90,73,57,29.98,29.92,6,1,11,0.14
2013-5-9,74.5,62.1,55.3,58.6,53.6,42.9,93,76,36,29.97,29.90,9,1,9,0.01
2013-5-10,75.4,63.9,49.3,62.3,55.4,43.6,91,75,50,29.93,29.72,10,1,13,0.54
2013-5-11,54.5,48.0,43.7,49.3,44.2,41.0,91,87,78,29.85,29.76,16,2,17,0.10
2013-5-12,50.2,45.0,37.2,41.2,33.4,27.1,86,64,51,30.06,29.85,20,5,25,0.00
2013-5-13,48.2,42.3,36.2,33.0,29.0,23.8,84,59,49,30.19,30.04,12,2,17,0.00
2013-5-14,56.2,47.8,35.1,38.9,34.0,27.9,85,60,45,30.17,29.81,11,2,14,0.00
2013-5-15,80.8,66.6,53.7,60.3,49.8,38.2,79,56,36,29.81,29.61,22,3,22,0.00
2013-5-16,75.2,61.9,48.7,53.4,46.4,37.3,91,61,29,29.98,29.72,14,1,14,0.00
2013-5-17,62.1,56.9,50.0,48.7,44.7,41.1,79,64,47,30.16,29.98,15,2,17,0.00
2013-5-18,69.5,61.7,54.1,52.8,47.7,44.5,80,61,43,30.16,30.05,14,2,16,0.00
2013-5-19,84.0,70.5,57.0,65.5,59.6,48.8,85,69,48,30.05,29.91,9,1,10,0.00
2013-5-20,88.5,75.9,64.5,69.7,64.2,59.4,85,69,45,29.97,29.80,6,1,9,0.00
2013-5-21,88.7,76.2,67.5,70.4,66.5,61.7,92,74,44,29.85,29.72,9,1,12,1.34
2013-5-22,86.3,75.6,64.7,68.6,63.4,57.9,92,69,42,29.77,29.63,13,1,15,0.29
2013-5-23,71.3,60.4,45.5,65.5,56.6,42.3,92,87,73,30.00,29.68,11,1,16,0.28
2013-5-24,48.0,44.8,42.7,42.2,36.7,33.3,87,73,63,30.30,30.00,15,2,15,0.00
2013-5-25,57.7,50.4,44.1,45.0,39.5,34.7,79,67,49,30.36,30.25,15,2,16,0.00
2013-5-26,61.8,52.3,40.8,45.4,41.0,35.6,88,67,39,30.32,30.23,8,1,10,0.00
2013-5-27,66.0,53.0,38.6,51.4,43.2,35.1,90,72,33,30.27,30.08,10,0,10,0.08
2013-5-28,78.2,64.4,53.4,69.6,60.2,48.7,92,86,68,30.08,29.84,9,1,9,0.87
2013-5-29,83.7,74.7,65.9,68.4,63.9,60.9,92,71,50,29.99,29.86,15,1,16,0.08
2013-5-30,86.3,74.9,65.7,73.7,65.7,60.7,90,74,47,30.11,29.99,12,0,13,0.18
2013-5-31,88.3,74.7,67.2,71.3,65.2,61.7,91,74,42,30.03,29.90,12,1,16,0.62
2013-6-1,84.8,73.0,67.3,71.6,66.3,61.3,92,81,59,29.92,29.71,11,2,13,1.28
2013-6-2,74.3,68.4,59.2,66.4,61.4,51.3,93,79,59,29.92,29.68,18,3,19,0.54
2013-6-3,60.9,55.4,48.9,51.9,45.8,41.7,85,71,54,30.08,29.92,13,1,13,0.00
2013-6-4,64.0,55.2,44.7,51.5,44.9,41.1,90,70,47,30.19,30.07,6,0,11,0.00
2013-6-5,68.0,59.4,48.9,54.7,49.2,45.5,91,70,45,30.17,29.94,14,2,20,0.00
2013-6-6,60.6,58.4,55.7,57.7,54.9,51.0,93,88,71,29.94,29.78,10,2,13,0.83
2013-6-7,60.0,57.0,55.4,57.0,54.4,53.4,94,91,86,29.88,29.82,8,1,13,0.03
2013-6-8,66.0,59.5,54.1,57.6,54.8,50.9,93,85,65,30.09,29.86,7,1,10,0.00
2013-6-9,74.4,63.6,50.7,60.2,54.5,48.2,93,74,49,30.15,29.97,9,1,11,0.00
2013-6-10,74.8,69.5,65.2,70.8,65.6,59.2,93,88,68,29.96,29.68,6,0,9,0.56
2013-6-11,73.5,66.4,62.6,65.5,62.4,60.4,94,88,72,29.85,29.71,10,2,14,0.02
2013-6-12,76.0,67.3,62.2,67.5,62.2,59.6,92,84,71,29.89,29.69,7,0,8,0.11
2013-6-13,68.2,63.9,58.8,66.1,61.5,56.7,93,92,84,29.82,29.39,9,1,13,1.33
2013-6-14,68.5,62.1,55.7,61.6,57.2,52.0,93,85,64,30.05,29.81,11,1,12,0.01
2013-6-15,77.9,64.6,49.4,60.6,53.6,47.2,93,70,38,30.10,29.94,6,0,8,0.00
2013-6-16,77.3,71.1,66.2,66.7,62.9,57.7,85,75,63,29.95,29.74,18,2,21,0.00
2013-6-17,80.0,70.6,60.3,66.2,61.8,57.4,90,75,48,29.95,29.84,10,1,16,0.30
2013-6-18,68.3,63.7,56.7,61.3,56.5,48.3,93,78,55,30.01,29.83,15,1,15,0.14
2013-6-19,69.5,61.5,52.2,58.4,51.4,44.2,90,71,43,30.17,30.01,9,1,12,0.00
2013-6-20,76.7,62.6,49.1,56.0,48.8,38.8,91,65,29,30.23,30.16,7,0,11,0.00
2013-6-21,82.8,69.9,53.5,62.2,56.4,49.6,89,65,41,30.23,30.09,6,0,7,0.00
2013-6-22,87.6,77.8,66.8,72.2,65.7,59.1,80,67,50,30.12,29.97,10,1,10,0.00
2013-6-23,86.3,78.1,69.4,71.9,68.1,65.6,89,72,54,30.06,29.96,7,1,10,0.00
2013-6-24,84.9,78.0,68.8,69.7,67.0,64.1,86,70,53,30.06,29.92,11,1,13,0.00
2013-6-25,83.8,74.2,68.2,71.4,67.2,64.0,92,80,61,29.95,29.81,16,2,20,0.57
2013-6-26,80.4,73.0,67.2,70.3,67.0,64.8,93,82,66,29.88,29.75,10,1,14,0.20
2013-6-27,76.5,70.8,67.7,71.0,67.5,65.6,93,89,77,29.75,29.62,6,1,10,2.91
2013-6-28,75.5,70.4,67.1,69.4,65.8,61.9,93,86,71,29.62,29.47,10,1,10,0.14
2013-6-29,75.5,69.1,65.6,66.4,64.2,62.9,93,85,69,29.67,29.47,6,0,9,0.19
2013-6-30,74.5,69.6,64.8,65.9,63.1,60.6,91,80,68,29.86,29.67,10,2,12,0.01
2013-7-1,70.7,68.5,66.1,65.0,63.7,61.8,90,85,77,29.99,29.83,17,3,18,0.02
2013-7-2,74.8,67.9,63.1,67.3,62.5,59.7,90,83,75,30.03,29.94,11,2,17,0.00
2013-7-3,85.8,73.5,64.3,75.5,68.1,61.4,93,84,65,30.09,30.02,7,0,7,0.39
2013-7-4,81.5,74.6,70.4,74.1,69.9,68.0,93,85,71,30.14,30.07,5,0,6,0.01
2013-7-5,79.0,73.4,70.0,73.0,68.5,66.5,93,85,72,30.10,30.05,10,1,12,0.30
2013-7-6,83.3,74.8,68.6,73.5,69.8,66.1,93,85,67,30.12,29.98,6,0,9,0.23
2013-7-7,78.1,73.4,69.8,71.1,68.2,65.4,93,84,71,30.03,29.94,11,1,12,0.01
2013-7-8,84.7,74.0,68.4,73.7,68.2,64.6,93,83,64,30.05,29.96,7,0,10,0.94
2013-7-9,82.5,75.0,69.8,74.8,71.1,67.6,94,88,71,30.01,29.87,7,1,10,0.10
2013-7-10,87.0,75.0,69.3,78.2,70.6,65.8,93,86,69,29.89,29.68,16,1,16,0.44
2013-7-11,73.8,70.6,67.6,67.5,61.0,58.1,89,72,63,30.00,29.86,7,1,9,0.00
2013-7-12,78.0,71.3,62.5,68.4,64.5,59.3,92,80,65,30.11,29.99,13,1,14,0.00
2013-7-13,80.3,72.2,61.9,70.8,64.6,58.3,90,78,63,30.19,30.09,12,1,12,0.00
2013-7-14,88.2,77.8,67.5,74.8,70.0,64.7,93,78,59,30.24,30.19,9,1,11,0.00
2013-7-15,86.6,79.3,72.1,76.0,72.5,69.2,92,80,66,30.27,30.20,6,1,10,0.00
2013-7-16,88.0,80.5,74.0,77.3,73.8,71.3,92,81,65,30.26,30.19,5,1,7,0.00
2013-7-17,89.2,81.6,74.3,77.9,73.9,71.5,92,78,61,30.23,30.10,7,1,12,0.00
2013-7-18,89.8,82.1,76.4,78.0,74.4,72.5,90,78,59,30.11,29.94,9,1,11,0.00
2013-7-19,93.3,83.3,71.0,77.2,73.1,65.6,89,72,51,29.94,29.73,13,2,16,0.22
2013-7-20,80.3,73.3,68.6,73.6,68.8,66.4,93,86,68,29.88,29.73,9,1,12,1.37
2013-7-21,81.2,74.0,67.1,71.9,66.6,62.5,93,79,59,29.95,29.87,10,1,13,0.00
2013-7-22,79.3,71.5,64.1,71.9,67.0,61.2,92,86,71,29.94,29.73,6,0,7,0.16
2013-7-23,81.5,72.4,66.5,72.3,67.5,59.3,94,85,65,29.77,29.61,9,1,14,0.47
2013-7-24,71.2,65.1,57.4,59.5,53.9,51.2,88,68,51,30.02,29.77,11,1,14,0.00
2013-7-25,75.9,65.2,53.2,58.1,53.2,49.0,90,68,43,30.08,30.01,10,1,12,0.00
2013-7-26,78.4,67.5,55.9,64.6,58.3,52.6,90,74,52,30.08,29.93,7,0,8,0.00
2013-7-27,70.7,67.4,63.9,67.3,63.1,59.0,90,86,79,29.94,29.76,4,0,6,0.17
2013-7-28,71.1,65.5,59.9,64.5,56.5,48.2,91,74,49,29.97,29.79,10,1,12,0.45
2013-7-29,71.6,64.3,58.1,59.9,56.4,51.1,89,76,55,30.16,29.96,11,1,12,0.03
2013-7-30,75.2,65.9,55.6,65.4,58.5,53.3,93,78,56,30.21,30.13,6,0,9,0.00
2013-7-31,81.9,69.3,59.4,67.0,61.8,56.2,91,78,55,30.13,29.87,6,0,7,0.00
2013-8-1,75.0,70.1,64.8,67.0,64.7,61.8,92,83,74,29.88,29.78,10,2,12,0.40
2013-8-2,76.7,68.8,61.4,64.9,60.7,56.8,92,77,53,29.93,29.83,7,1,11,0.00
2013-8-3,75.4,71.1,62.6,67.4,62.6,57.6,88,75,56,29.97,29.85,11,1,11,0.00
2013-8-4,72.8,67.5,62.3,62.3,56.9,49.9,89,69,54,30.09,29.96,11,2,12,0.00
2013-8-5,71.8,64.0,54.5,59.0,54.8,51.4,90,73,51,30.12,29.99,5,0,6,0.00
2013-8-6,82.8,69.5,59.2,66.1,59.6,54.6,88,72,44,30.00,29.92,5,0,5,0.00
2013-8-7,82.4,72.1,64.8,73.4,65.6,58.8,90,80,65,29.92,29.82,4,0,6,0.15
2013-8-8,81.6,74.5,70.5,74.5,70.3,67.0,93,87,77,29.93,29.86,6,0,8,0.01
2013-8-9,74.9,70.3,62.4,68.9,63.1,53.1,91,79,49,29.98,29.85,9,1,10,0.11
2013-8-10,74.6,69.2,62.3,62.4,58.0,53.6,88,68,50,30.10,29.97,7,1,10,0.00
2013-8-11,79.4,70.2,60.0,61.4,57.9,53.7,89,67,45,30.12,30.01,7,0,9,0.00
2013-8-12,72.2,67.7,62.8,67.9,63.0,57.7,90,85,78,30.03,29.79,5,0,7,0.04
2013-8-13,70.1,65.6,61.7,66.6,58.1,47.8,94,78,58,29.96,29.75,13,1,14,0.97
2013-8-14,70.1,64.2,59.0,55.7,51.9,47.9,78,65,51,30.13,29.95,11,1,13,0.00
2013-8-15,71.1,61.5,51.6,59.5,53.0,48.5,90,75,53,30.16,30.10,9,1,9,0.00
2013-8-16,75.7,63.8,52.5,62.1,55.1,49.8,92,75,50,30.18,30.11,6,0,7,0.00
2013-8-17,80.3,66.4,53.9,69.6,58.3,51.3,92,77,51,30.25,30.18,9,0,12,0.00
2013-8-18,78.2,68.1,57.6,68.4,61.2,54.7,91,79,61,30.21,30.10,6,0,10,0.00
2013-8-19,77.4,70.2,63.2,69.4,64.6,59.8,92,83,63,30.10,30.04,6,0,7,0.00
2013-8-20,81.2,70.7,61.5,68.1,61.8,57.9,89,75,50,30.14,30.05,6,1,9,0.00
2013-8-21,83.8,73.1,64.1,69.0,64.6,60.3,90,76,52,30.16,30.00,0,0,0,0.00
2013-8-22,80.1,73.1,66.6,71.4,67.4,63.6,91,83,68,30.03,29.93,10,1,15,0.00
2013-8-23,78.5,73.0,63.0,69.3,63.7,56.7,87,73,60,30.17,29.97,10,1,14,0.00
2013-8-24,77.6,66.8,56.1,61.4,56.9,52.5,89,72,48,30.31,30.17,9,0,9,0.00
2013-8-25,82.2,70.0,58.0,65.2,60.0,55.1,91,73,45,30.32,30.16,8,1,9,0.00
2013-8-26,86.5,74.1,65.1,70.0,64.1,59.1,91,73,46,30.16,29.93,13,1,14,0.53
2013-8-27,80.8,75.6,71.1,74.1,71.0,68.3,92,86,72,29.94,29.85,10,1,12,0.16
2013-8-28,80.8,73.8,69.9,77.8,71.1,67.1,94,91,85,29.93,29.76,6,0,10,0.62
2013-8-29,82.4,74.6,67.5,74.8,69.5,65.3,94,85,66,30.03,29.93,7,0,9,0.00
2013-8-30,85.5,74.6,65.4,73.2,68.2,63.0,93,82,61,29.99,29.73,6,0,10,0.00
2013-8-31,79.5,74.1,70.0,72.9,69.8,67.2,93,87,77,29.81,29.70,5,0,10,0.53
2013-9-1,82.6,72.7,66.2,74.2,69.2,63.8,93,89,71,29.79,29.72,0,0,0,0.30
2013-9-2,77.5,71.7,67.7,72.7,67.2,59.5,94,86,73,29.82,29.70,7,1,10,0.05
2013-9-3,68.8,64.5,59.7,59.5,56.8,53.7,87,76,67,30.00,29.82,9,1,12,0.00
2013-9-4,75.7,65.6,56.0,63.4,58.1,52.9,91,78,47,30.06,29.99,10,1,14,0.00
2013-9-5,70.2,66.3,62.1,64.4,52.8,44.9,83,62,48,30.21,29.99,8,1,10,0.00
2013-9-6,71.2,60.5,49.2,56.8,49.4,44.3,86,68,47,30.28,30.09,7,0,7,0.00
2013-9-7,78.9,66.9,55.0,67.6,58.2,49.3,88,75,49,30.09,29.87,6,0,6,0.01
2013-9-8,71.3,67.3,57.3,67.6,59.1,48.9,90,76,57,30.07,29.86,14,1,16,0.00
2013-9-9,77.1,65.3,53.3,70.8,59.9,48.6,89,83,68,30.07,29.94,0,0,0,0.08
2013-9-10,92.9,80.7,72.0,76.6,71.3,67.9,88,75,50,30.01,29.91,10,1,10,0.00
2013-9-11,91.3,81.2,73.1,79.4,72.2,67.4,89,76,47,30.04,29.89,7,0,14,0.00
2013-9-12,74.5,70.5,63.2,68.8,64.5,54.5,90,82,59,29.95,29.80,10,1,12,0.20
2013-9-13,64.3,60.0,54.9,56.9,50.4,42.5,83,71,61,30.07,29.82,12,1,14,0.08
2013-9-14,63.2,55.9,48.0,50.7,44.7,39.6,88,66,57,30.17,30.06,10,0,10,0.00
2013-9-15,70.5,58.7,48.0,57.6,51.5,44.9,90,78,57,30.16,30.04,0,0,0,0.04
2013-9-16,64.1,59.2,50.0,57.2,53.5,45.6,91,82,75,30.33,30.08,10,0,11,0.02
2013-9-17,66.4,53.9,41.7,53.4,46.2,38.6,90,77,45,30.43,30.24,11,0,12,0.00
2013-9-18,76.8,60.5,48.3,61.2,51.4,42.0,89,73,46,30.24,30.07,2,0,4,0.00
2013-9-19,77.0,66.8,59.6,66.9,61.4,54.8,91,83,68,30.09,29.96,0,0,1,0.00
2013-9-20,78.3,70.5,64.7,72.0,66.4,61.2,92,87,78,29.99,29.73,7,0,10,0.64
2013-9-21,69.6,64.4,59.5,66.7,60.6,53.3,93,88,75,29.78,29.62,7,1,13,1.35
2013-9-22,60.9,57.5,55.5,53.9,48.7,43.6,81,73,64,30.03,29.78,11,1,12,0.00
2013-9-23,58.3,53.9,43.6,46.8,44.2,40.6,90,70,59,30.16,30.03,6,0,8,0.00
2013-9-24,65.3,52.3,40.9,53.3,46.3,38.5,92,81,60,30.15,29.98,9,0,10,0.00
2013-9-25,70.8,55.2,42.0,57.2,48.6,39.6,96,80,55,30.01,29.92,7,0,10,0.00
2013-9-26,69.6,57.0,44.1,57.9,49.6,41.5,93,78,43,30.11,29.96,13,0,13,0.00
2013-9-27,69.3,58.8,49.1,58.2,52.9,46.6,93,81,59,30.22,30.11,12,1,13,0.00
2013-9-28,78.6,63.4,51.5,60.8,54.1,48.7,91,74,44,30.24,30.09,4,0,10,0.00
2013-9-29,73.0,63.8,54.5,62.6,56.3,49.1,86,77,65,30.09,29.96,4,0,6,0.00
2013-9-30,67.7,63.7,58.6,64.3,60.4,55.9,92,89,84,29.99,29.94,3,0,4,0.05
2013-10-1,73.6,64.3,56.6,64.7,59.8,54.3,94,86,69,30.04,29.94,6,0,10,0.00
2013-10-2,72.3,64.5,56.0,65.6,60.2,53.4,92,86,69,30.07,29.96,10,1,12,0.00
2013-10-3,75.8,64.5,54.4,68.1,60.7,51.8,92,88,74,30.07,29.96,0,0,0,0.40
2013-10-4,76.3,69.7,65.7,69.5,65.6,63.3,93,87,73,30.02,29.96,7,0,11,0.03
2013-10-5,77.7,68.6,64.1,71.6,65.5,61.7,93,90,76,30.03,29.91,10,0,13,0.81
2013-10-6,81.2,72.9,60.6,71.8,66.8,56.9,94,82,62,29.91,29.64,12,1,14,0.12
2013-10-7,60.3,56.2,50.7,56.6,49.4,43.6,92,79,61,30.09,29.68,14,2,18,0.98
2013-10-8,66.1,56.4,48.4,55.1,46.7,44.3,91,72,48,30.30,30.09,7,0,7,0.00
2013-10-9,71.4,56.6,46.9,53.0,47.2,41.5,88,73,37,30.34,30.23,9,0,11,0.01
2013-10-10,65.3,54.5,45.6,52.8,46.7,40.7,90,76,51,30.26,30.11,10,0,11,0.00
2013-10-11,71.0,56.0,45.6,58.4,49.3,43.1,93,80,50,30.13,30.07,9,0,11,0.00
2013-10-12,75.3,61.0,48.2,62.8,54.9,45.6,92,81,61,30.13,30.06,9,0,10,0.00
2013-10-13,70.2,64.8,60.1,62.4,59.2,52.8,91,82,72,30.28,30.10,5,0,9,0.01
2013-10-14,62.5,57.1,44.3,52.8,46.8,41.3,89,69,56,30.35,30.26,13,1,13,0.00
2013-10-15,70.6,56.7,43.2,61.5,52.4,40.8,93,86,71,30.26,29.89,4,0,5,0.00
2013-10-16,70.0,62.4,58.4,63.8,57.7,48.2,93,85,68,29.89,29.74,13,1,13,0.69
2013-10-17,63.7,54.1,49.1,50.9,48.4,45.8,90,82,59,29.89,29.73,7,1,11,0.25
2013-10-18,63.4,54.6,47.6,48.0,45.7,41.5,91,73,47,29.94,29.79,13,1,14,0.23
2013-10-19,52.6,48.9,43.0,47.2,44.6,40.3,91,85,77,29.89,29.71,7,0,13,1.20
2013-10-20,59.0,48.7,41.2,44.1,41.0,36.9,91,76,47,29.96,29.86,9,1,14,0.09
2013-10-21,64.9,54.9,47.8,52.3,43.6,40.0,88,67,41,29.95,29.80,9,1,13,0.08
2013-10-22,51.6,47.0,43.8,48.4,37.3,31.8,89,69,55,29.92,29.80,13,2,15,0.15
2013-10-23,48.2,42.7,38.5,41.8,36.3,27.3,92,79,48,29.89,29.77,11,1,14,0.93
2013-10-24,44.7,38.1,34.4,38.5,34.8,31.6,91,88,75,30.11,29.89,7,1,9,0.58
2013-10-25,47.8,44.6,39.0,39.4,35.3,30.8,88,70,60,30.28,30.11,13,2,17,0.01
2013-10-26,47.2,43.0,37.2,40.3,31.6,27.8,87,64,52,30.18,29.83,13,1,13,0.19
2013-10-27,49.7,45.2,37.8,37.7,34.9,32.1,86,68,54,30.07,29.92,13,2,14,0.00
2013-10-28,54.4,43.8,36.5,44.0,37.5,32.4,88,79,64,30.35,30.07,12,0,13,0.00
2013-10-29,53.7,44.6,34.2,39.0,35.4,30.3,88,71,48,30.43,30.26,7,0,9,0.00
2013-10-30,65.8,49.1,38.0,50.3,40.7,34.4,88,74,41,30.26,30.02,5,0,10,0.00
2013-10-31,67.4,61.0,55.5,61.1,57.1,50.1,92,87,76,30.02,29.27,13,1,14,0.65
2013-11-1,62.6,55.3,50.7,59.0,47.9,42.0,90,76,66,29.68,29.18,22,3,22,0.25
2013-11-2,50.8,47.6,44.2,46.3,43.5,39.1,91,86,80,30.02,29.64,12,1,14,0.65
2013-11-3,44.2,39.5,30.7,39.1,31.2,25.6,84,72,59,30.51,30.01,12,0,12,0.00
2013-11-4,45.7,38.0,30.1,26.1,23.2,19.2,77,57,35,30.58,30.40,6,0,8,0.00
2013-11-5,58.2,49.3,41.5,41.5,33.9,25.4,72,55,47,30.43,30.27,7,0,7,0.00
2013-11-6,67.1,56.7,47.8,56.7,44.2,31.6,89,64,49,30.26,29.85,17,2,20,0.23
2013-11-7,53.4,44.7,37.9,49.7,35.5,27.2,90,71,55,30.10,29.88,16,3,17,0.35
2013-11-8,45.1,41.0,35.7,36.0,30.0,27.2,88,65,52,30.27,30.06,16,2,19,0.13
2013-11-9,57.8,47.2,34.9,46.0,33.4,26.9,77,60,40,30.26,29.84,13,2,15,0.02
2013-11-10,54.6,48.0,44.3,44.6,36.1,31.1,77,63,54,30.24,29.86,20,5,23,0.03
2013-11-11,48.4,41.5,32.4,40.5,33.6,29.3,96,74,49,30.24,30.01,12,2,16,0.40
2013-11-12,36.9,34.0,32.0,30.2,24.2,16.4,90,68,49,30.48,30.20,16,2,16,0.16
2013-11-13,39.1,34.8,32.2,25.9,21.4,18.1,72,58,44,30.50,30.24,12,2,14,0.03
2013-11-14,51.6,40.2,30.2,24.5,21.6,17.7,66,48,30,30.26,30.08,11,1,12,0.03
2013-11-15,54.6,46.0,38.7,30.5,24.9,21.8,58,44,29,30.13,30.06,7,0,9,0.00
2013-11-16,59.7,51.7,40.7,49.8,41.0,30.0,76,67,57,30.20,29.90,11,1,11,0.00
2013-11-17,65.5,60.2,54.3,57.3,52.8,41.0,88,77,50,29.90,29.36,24,4,28,0.58
2013-11-18,54.7,45.7,38.9,42.0,34.8,24.4,72,66,55,30.08,29.49,24,8,29,0.00
2013-11-19,39.9,37.4,30.5,28.7,26.7,25.0,85,65,58,30.44,30.08,12,1,15,0.00
2013-11-20,48.8,37.3,27.4,26.8,20.9,14.5,95,57,26,30.50,30.33,10,1,12,0.00
2013-11-21,44.9,41.1,38.7,40.4,30.8,16.0,93,69,38,30.40,30.20,12,2,13,0.19
2013-11-22,49.3,44.5,37.6,47.1,40.7,28.4,92,87,69,30.30,30.09,11,2,21,0.15
2013-11-23,38.3,32.3,24.2,29.6,21.8,9.1,82,65,50,30.39,30.19,22,5,23,0.00
2013-11-24,27.1,24.9,22.1,17.8,13.7,10.4,78,62,53,30.53,30.39,21,4,29,0.00
2013-11-25,35.2,27.7,19.9,25.9,16.2,11.0,83,63,39,30.47,30.17,12,2,16,0.00
2013-11-26,36.1,33.9,32.4,32.0,28.0,20.8,91,80,55,30.17,29.84,7,0,7,0.00
2013-11-27,36.8,31.5,27.0,32.3,24.4,18.0,91,75,64,30.12,29.78,17,4,21,0.03
2013-11-28,29.7,28.0,26.2,23.7,20.0,16.6,85,72,63,30.43,30.12,14,2,15,0.00
2013-11-29,32.5,28.3,23.1,28.0,22.9,18.2,88,80,71,30.69,30.43,4,0,4,0.05
2013-11-30,39.0,32.0,22.8,28.0,22.9,16.6,79,69,58,30.66,30.18,13,2,14,0.05
2013-12-1,40.9,36.8,33.4,31.9,29.3,26.0,81,74,67,30.18,29.98,5,0,6,0.08
2013-12-2,40.3,36.3,28.7,35.6,31.3,25.6,88,82,75,29.98,29.88,4,0,6,0.01
2013-12-3,44.9,35.4,25.9,39.1,30.3,23.1,96,82,68,29.95,29.88,5,0,6,0.00
2013-12-4,57.7,50.9,39.4,47.2,42.6,35.0,86,73,64,29.96,29.75,11,1,12,0.00
2013-12-5,61.0,50.5,34.7,54.4,43.4,31.0,88,77,68,30.12,29.71,19,4,23,0.07
2013-12-6,36.4,33.6,28.4,33.8,26.6,23.2,96,76,63,30.34,30.09,9,1,14,0.09
2013-12-7,30.6,26.8,24.5,24.9,17.8,14.6,82,69,61,30.62,30.34,11,1,15,0.00
2013-12-8,30.7,27.1,22.7,25.3,18.7,16.3,80,70,58,30.62,30.08,8,0,12,0.00
2013-12-9,36.4,33.2,28.6,32.9,27.0,19.1,90,78,67,30.13,29.92,19,3,20,0.02
2013-12-10,29.6,27.1,23.4,20.0,15.1,4.6,80,61,35,30.21,29.98,25,5,26,0.01
2013-12-11,27.6,23.9,20.3,21.5,16.9,9.3,87,74,62,30.42,30.21,17,3,20,0.00
2013-12-12,21.9,19.1,15.7,12.7,8.3,0.6,83,63,40,30.44,30.22,17,3,18,0.00
2013-12-13,29.7,26.1,21.3,22.8,17.3,10.0,82,69,61,30.30,30.19,11,1,13,0.00
2013-12-14,33.5,27.8,23.0,31.2,24.6,19.5,91,88,80,30.31,29.67,8,0,10,0.00
2013-12-15,33.6,26.8,19.7,31.3,23.2,15.6,91,86,76,30.02,29.65,14,2,16,0.00
2013-12-16,23.0,17.7,7.7,19.5,13.6,4.1,88,84,76,30.19,30.02,6,0,9,0.00
2013-12-17,28.6,26.2,19.3,25.5,21.8,14.4,88,83,75,30.05,29.93,13,1,17,0.00
2013-12-18,30.9,28.5,25.8,26.2,22.4,17.7,87,78,69,30.14,30.01,11,2,17,0.00
2013-12-19,47.4,38.2,26.8,35.3,27.9,18.7,74,66,56,30.03,29.94,11,1,13,0.47
2013-12-20,53.7,45.8,41.5,51.1,41.5,33.8,91,85,69,29.95,29.77,9,1,12,0.39
2013-12-21,56.4,45.4,37.6,53.3,42.9,35.5,92,91,87,29.83,29.57,11,1,16,1.67
2013-12-22,62.4,45.1,35.2,55.7,41.7,33.1,93,88,76,29.98,29.43,19,4,27,0.38
2013-12-23,39.4,34.9,31.1,37.0,29.7,21.7,91,82,65,30.32,29.98,14,3,16,0.00
2013-12-24,31.2,23.6,19.1,24.4,16.9,10.0,88,75,63,30.55,30.28,21,3,21,0.00
2013-12-25,28.2,21.4,12.6,20.7,13.5,7.7,84,72,61,30.55,30.19,12,0,13,0.00
2013-12-26,32.0,29.3,24.2,28.4,23.2,17.6,90,78,69,30.34,30.09,17,3,22,0.00
2013-12-27,37.7,32.7,26.0,30.9,26.6,18.9,86,78,71,30.34,30.16,9,1,10,0.06
2013-12-28,51.9,43.8,36.8,35.5,31.9,28.7,78,63,51,30.16,29.97,13,1,15,0.03
2013-12-29,46.0,41.0,28.6,37.4,30.7,25.2,88,67,50,29.96,29.68,13,2,20,0.01
2013-12-30,28.7,21.2,18.8,25.6,14.9,11.2,88,76,69,30.29,29.93,13,1,17,0.00
2013-12-31,22.7,20.8,18.6,19.1,15.6,11.7,88,80,69,30.33,30.06,21,3,23,0.00
2014-1-1,23.3,21.9,20.5,19.2,18.1,16.8,88,85,81,30.40,30.19,9,1,12,0.00
2014-1-2,23.7,18.6,11.6,20.5,15.6,8.2,96,88,84,30.19,29.91,20,3,26,0.00